indice_tiempo,ganancias,ganancias_dgi,ganancias_dga,iva,iva_dgi,devoluciones,iva_dga,reintegros,internos_coparticipados,ganancia_minima_presunta,intereses_pagados,otros_coparticipados,derechos_exportacion,derechos_importacion_otros,total_combustibles,combustibles_ley_23966_naftas,combustibles_ley_23966_otros,otros_s_combustibles,bienes_personales,creditos_debitos_cta_cte,impuesto_pais,otros_impuestos,aportes_personales,contribuciones_patronales,facilidades_pago,otros_ingresos_seguridad_social,sistema_capitalizacion,otros_sipa,sistema_seguridad_social,total_recursos_tributarios,total_con_capitalizacion_transitorios
1997-01-01,1692.27357183,1591.1219858499999,101.15158598,4979.62542564,3708.92667641,356.72780967,1627.4265589,171.15502935,416.08925721,0.0,23.82983893,58.081845525000006,0.560583,614.93503955,944.01380676,564.99764483,379.01616192999995,0.0,16.85893823,0.0,,161.071229895,1641.0066699999998,1845.97425,125.94614,109.65759200000001,928.46795,10.419789999999999,2783.6969119999994,11519.88141922,12458.76915922
1997-04-01,2699.13904137,2575.38894115,123.75010022000001,5038.65830849,3561.5380108000004,429.61534814000004,1906.73564583,153.77384494,376.26604093,0.0,-19.99632799,48.59829565,3.624767,692.91,888.0175342800001,670.8078716,217.20966268,0.0,217.65677828999998,0.0,,178.78341767,1474.33381,1647.87252,104.76299,95.133201,856.11185,-13.440959999999999,2479.4316310000004,12449.31564175,13291.986531749999
1997-07-01,1836.85863153,1699.2834554300002,137.5747261,5325.98227607,3644.1901326199995,453.65242539999997,2135.4445788499997,144.81726212,361.86575632,0.0,2.0483635600000003,60.60048301,1.92172965,755.9844506100001,935.70016916,568.23523372,367.46493544,0.0,102.26980207999999,0.0,,198.75501433,1708.9713000000002,1936.04481781,95.28391,75.533387,1001.8111799999999,22.53292,2791.48931481,12228.65872901,13253.002829009998
1997-10-01,2105.507442,1972.2367766999998,133.2706653,5129.6079937,3724.33169964,623.24821823,2028.52451129,183.75873323000002,383.12013565,0.0,11.58626635,56.659438574999996,0.36043836,763.25480939,1159.35341868,639.77760253,519.57581615,0.0,151.90827099,0.0,,255.15510749499998,1550.7344600000001,1780.252548,81.62228,36.478671999999996,909.3565,43.02722,2496.70424,12329.458827960003,13281.842547960001
1998-01-01,1934.65691543,1818.6619334400002,115.99498199000001,5266.01516707,3798.83333389,397.43965637,1864.62148955,117.02025615,363.53037168000003,0.0,-9.14364123,64.247316135,1.34238039,655.19657897,763.06472009,571.02699669,192.0377234,0.0,86.30038880000001,0.0,,231.018801295,1659.9242800000002,2061.69911,75.17958,20.283701,1086.96225,-1.0260000000000016,2731.1504210000003,11970.359163480001,13056.295413480002
1998-04-01,3158.7683161200002,3027.60558199,131.16273413,5216.23459613,3663.7810524999995,426.55522260999993,1979.00876624,144.65840624,367.42859724,0.0,-7.9763997,46.1833793,16.94338976,706.54193722,912.3541407600001,565.8832224700001,346.47091829,0.0,316.4930815,0.0,,228.61148041,1453.50366494,1855.88044017,48.08968107,23.24161088,957.4046263999999,19.13673261,2404.1740380500005,13221.09815055,14197.639509560002
1998-07-01,2069.34953007,1935.1966662099999,134.15286386,5401.35245171,3793.93713293,434.31770523,2041.73302401,130.62772622,371.86794711,0.0,-1.0156082100000001,48.055218335,8.82268356,740.24060134,959.11067721,571.4635694,387.64710781,0.0,130.95990099,0.0,,235.83590342499997,1686.67132158,2124.848013,27.92119597,24.82219938,1106.32932821,32.43588542,2725.4975163000004,12559.449095619999,13698.214309250001
1998-10-01,2325.7811746300004,2207.07582268,118.70535195,4973.75568567,3637.75995958,474.27700819999995,1810.27273429,127.97515561,379.08861851,0.0,2.4241509800000003,50.785548559999995,0.75799691,673.94602976,1057.93091629,617.00684748,440.92406881,0.0,238.45185134000002,0.0,,303.86131398,1453.48934399,1874.7158206200002,24.71193255,83.95542384000001,998.6018728,31.44213242,2406.8285157799996,12285.6366468,13315.680652019999
1999-01-01,2022.29600972,1924.52807322,97.76793649999999,4832.9497849399995,3803.9095685,443.38878769,1472.42900413,105.79355113,387.68295080999997,196.46479046000002,109.62358265,49.57277902,2.91887354,558.25112691,790.51170485,540.3150375600001,250.19666729,0.0,17.96521791,0.0,,312.3291047,1695.18338326,2091.84497304,21.60426606,92.45390111999998,1174.08293769,63.88409629,2663.1194895000003,11837.89186388,13075.858897859998
1999-04-01,2621.69562617,2523.93268481,97.76294136,4562.162328230001,3579.70377554,516.75288722,1499.21143991,151.4846394,349.97527749,237.84624884000002,196.39357832000002,42.93223613499985,13.72982669,528.8187432300001,908.7074573699999,528.76748757,379.93996980000003,0.0,205.65542796,0.0,,567.868644175,1419.30576598,1598.57159339,15.09518323,85.36791360000001,1006.3712802699999,43.03489351999996,2068.9342824100004,12153.235037620001,13202.641211410002
1999-07-01,2250.17504101,2143.65010017,106.52494084,4706.6349486399995,3505.31571809,475.70530823,1677.02453878,141.20556034999998,360.40798795,153.44500595,192.49089611,49.65186764999987,7.89758441,585.01493723,883.80732552,528.25449035,355.55283517,0.0,120.67179478999999,0.0,,351.47424289,1624.4345288299999,1828.7806966,8.01945965,85.69479222999999,1168.87729495,-87.59862599000002,2465.6508083500003,11986.116880149999,13067.395549109999
1999-10-01,2345.80098317,2231.77900981,114.02197336,4669.28912037,3484.84924203,531.99934218,1716.4392205200002,175.62431107,377.03765379,151.96165034999999,196.28355179,44.868539970000114,0.5326815,605.6598091000001,1004.8483207300001,579.17302321,425.67529751999996,0.0,201.24005461,0.0,,300.19668021999996,1413.02126276,1475.66648655,6.5578866300000005,87.92964336,1002.4370689,37.01854183000003,1943.7196685699996,11665.814403100001,12705.27001383
2000-01-01,2141.90138948,2043.13816096,98.76322852,4644.875076910001,3606.08040003,374.88256440000004,1413.67724128,142.02907108,388.30079022,145.71388631,221.41368606999998,59.04044294499977,2.06988732,501.42057916,785.78456683,541.19764486,244.58692197000002,0.0,109.09886086,0.0,,381.183161505,1688.0389362700002,1743.16106955,0.0,94.37295199,1184.8945091500002,-83.36457698000001,2424.0430256400005,11662.81628217,12764.34621434
2000-04-01,3324.77724777,3223.2389318199994,101.53831595,4817.372852320001,3631.8804723599997,299.66500565,1485.15738561,146.04573097,357.17211732,151.87705185,221.95939016,130.95924425,21.928423900000002,486.37206216000004,878.3828391699999,539.33888158,339.04395759,0.0,350.03305362,0.0,,427.3607931700001,1475.22514553,1503.11463513,0.0,111.64275147999999,996.5445151700002,57.37258261999996,2036.0654343499996,13058.214779069998,14112.13187686
2000-07-01,2434.65147978,2328.84193365,105.78116476000001,4937.22382766,3697.41895393,340.11836307,1579.9232368,152.44892454,379.04497912,138.20068222999998,209.42209765999996,107.218154485,6.30778578,503.31351356000005,909.7441543399999,542.0910976099999,367.65305673,0.0,248.31868952999997,0.0,,265.72735172499995,1662.5828789799998,1786.9447638299998,0.0,116.91322208,1120.4391136999998,-73.69716025999996,2519.69891145,12506.42270278,13553.16465622
2000-10-01,2553.88624206,2452.9631405299997,100.87982883999999,4609.0,3487.8999999999996,452.1,1573.1999999999998,142.22773093,403.85395666,164.36332765999998,202.31850556,66.37145584,1.76634634,485.14492540000003,904.3029842899999,531.00065866,373.30232562999987,0.0,316.86115084,0.0,,290.63618706,1434.44887552,1493.60236998,0.0,101.02945829000001,1006.3091160499998,4.131562039999906,2018.6400257,11874.91737648,12885.358054569999
2001-01-01,2300.6049893199997,2213.2817484300003,87.32324089000001,4402.448215779999,3514.71684716,440.62250952,1328.3538781399998,164.34172652,465.98477179,153.12023938,156.17631132,48.68722903,0.27813622000000005,453.79279385,754.3591453600001,487.01269998,267.34644538,0.0,168.74189737,0.0,,274.84158546000003,1700.0772593000002,1695.8220336,0.0,96.42274229,1183.4079970700002,18.586413100000026,2290.3276250199997,11305.02121338,12507.015623549998
2001-04-01,3481.1910181000003,3392.09517628,89.09584182,4189.82545767,3257.5155999900003,420.41145517999996,1352.7213128600001,141.39331239,519.55540761,159.96567063000003,127.79171842,45.0145632,20.23271969,488.01159935999993,804.6917227700001,456.94775021,347.74397256,0.0,228.15087158,759.4435415400001,,206.80663583,1423.8845288399998,1376.8887772399999,0.0,94.73800861000001,1003.80793412,-37.41108831999999,1929.11446889,12818.4020829,13784.798928700002
2001-07-01,2222.43213225,2139.3833417,83.04879055,3764.2995162699995,3027.1945373099998,436.86312510999994,1173.96810407,122.80973105999999,315.50399303999995,118.90460368999999,102.99264184,38.251830595,23.371586800000003,381.22569564,981.9255051499999,444.47847898,537.44702617,0.0,147.2,1100.6,,203.6,1543.9172098,1644.1351666300004,0.0,86.24041922999999,1089.9821658800001,37.386346739999894,2146.9242830400003,11424.422057255,12551.790569874996
2001-10-01,2087.07484338,2027.17812712,59.89671626,2994.409664,2596.57800184,475.23158686,873.0632490200001,103.19772947,320.16177561,118.06095515000001,57.745640400000006,29.005416789999995,8.46542475,275.30275857,878.65019087,432.39318875999993,446.25700211000003,0.0,225.24028277,1072.93137317,,214.14195682000002,1076.30322439,1292.32346287,0.0,73.45572853,736.85253791,27.656552660000013,1677.5733252200002,9855.56587803,10620.074968600002
2002-01-01,1571.71820764,1527.95812561,43.76008203,3071.72745158,2592.35080542,165.28953991999998,644.66618608,121.85433638,395.51650185,102.03980751,29.398581380000003,32.029895545,102.36880765000001,201.10141616,928.2000253900001,397.14056764000003,351.93039053999996,179.12906721000002,117.60000000000001,977.5999999999999,,209.37566931499998,833.92521267,1456.0444196599997,0.0,71.49822141000001,454.08568878999995,35.07400082000005,1872.3081641299996,9489.13019177,9978.289881379998
2002-04-01,2158.89076101,2085.02028733,73.87047368,3812.86082155,3105.17220294,502.67787237999994,1210.3664909899999,255.47749104999997,405.47192148,111.30117762,21.0794285,40.502819605000006,1261.2292538000002,311.06446292,1011.0437498599999,386.3025589,354.6651205499999,270.07607041,142.60000000000002,1237.6000000000001,,174.899492415,846.4278717299999,1444.75973328,0.0,71.15154383000001,461.56778901999996,8.012505310000103,1892.7588545099998,12325.825252219998,12795.405546549999
2002-07-01,2291.09840776,2199.8478243299996,91.25058342999999,4117.358795890001,3834.1798433,1135.7921984,1418.9711509899998,382.93995743,431.44899806999996,173.58493246,0.21816781,47.25882799500001,1903.8777539399998,381.59754571999997,1229.20412246,469.81272985,345.93197152,413.45942109000003,114.50639295,1322.63574299,,134.949292815,1006.17536631,1806.72269371,0.0,70.34966496999999,530.7764825300001,55.28198176999991,2297.18926069,14061.988284119998,14648.046748419998
2002-10-01,2897.6314647299996,2796.13884359,101.49262114,4240.227146990001,3833.64283903,1106.38239527,1512.96670323,461.73993086,483.03050758999996,147.69427706,0.0,34.892911505,1754.0649541399998,412.23165756000003,1314.7230284299999,425.22214499,403.95930352,485.54157992,148.80237585,1319.51053524,,186.60070079000002,877.5863783999998,1661.5591985199997,0.0,67.50759439,472.14658111999995,13.717341550000016,2120.7892486399996,14598.458877664998,15084.322800335
2003-01-01,2681.80430829,2582.92405521,98.88025307999999,4539.50954689,3888.1653683799996,922.04520264,1573.38938115,332.22924405000003,497.93144534000004,155.37586869999998,0.0,40.94155615,2023.37895265,409.00278774,1088.79136067,440.07181274,290.89462902,357.82491891,96.1,1331.3000000000002,,148.14461875,1041.25919321,1855.8835886400004,0.0,70.56308411,541.7802908799999,27.874808829999964,2398.05076625,15078.10196738,15647.75706709
2003-04-01,4772.86890169,4653.14753738,119.72136430999998,4702.40509294,3999.6690221999997,1170.8523902700001,1873.5884610100002,338.00559795,483.31662643,463.50613276999997,0.0,43.83609055,2708.71498275,491.42619273,1266.86059802,388.76949263999995,393.48709216,484.60401321999996,803.56700523,1428.85223687,,182.68374221,1083.96148418,1661.6861590300002,0.0,81.89302751,641.4017241399999,109.08414231000005,2077.05480427,19087.08680851,19837.57267496
2003-07-01,3512.85649432,3358.02652719,154.82996713,5700.51800284,4368.17071353,1046.34947789,2378.6967672,346.76842133,576.4861675000001,371.85096226999997,0.0,46.150983895,2222.75863343,587.13787969,1223.7147484900001,392.35333438,370.03805498,461.3233591300001,412.58823993000004,1505.31287801,,193.752462775,1300.46217683,2054.87187752,0.0,88.54662856,758.04254922,13.42254280000007,2672.4155908899993,18678.77462271,19450.23971473
2003-10-01,3783.20691635,3610.5283308,172.67858555,6005.1401312299995,4377.53418923,1200.8560977,2828.4620397,350.20352696,665.2422400099999,372.03581246,0.0,52.39165390500001,2257.0456969399997,605.3319891399999,1393.8099304500001,387.91326454,474.36139032000005,531.5352755900001,290.53134338,1634.7535219300003,,200.552960795,1266.6551244,1956.6774272000002,0.0,89.30203728,783.1826252999999,8.67974272999996,2520.77222085,19430.61089048,20222.47325851
2004-01-01,3379.2,3211.5,167.70000000000002,6945.0,4969.1,600.3,2576.2,300.0,718.9,360.20000000000005,0.0,47.452377125,1966.0000000000002,704.6,1090.13815106,432.2098967,290.62257901,367.30567535,163.9,1728.6,,219.60000000000002,1587.91485527,2441.72757429,0.0,94.98194438,959.1392042099999,56.03277211999996,3109.4523976100004,20133.042925794998,21148.214902125
2004-04-01,9520.97341197,9314.60842804,206.36498393,7670.06049839,4921.16286718,484.57591446,3233.47354567,350.01285234,673.08772905,325.05417386,0.0,49.387973165000005,2971.0823126600003,773.3709766100001,1382.6802394800002,392.40963529,461.24822714999993,529.02237704,968.47950672,1894.01620422,,211.571710695,1495.96182795,2222.53683876,0.0,76.81373214999999,904.3112264499999,95.15192256000005,2795.84924985,28885.601134329998,29885.064283339998
2004-07-01,4876.2478759,4619.2095042,257.0383717,8443.62868348,5272.32543363,372.00231272999997,3543.30556258,420.0,753.9431037699999,265.15609335,0.0,54.54829858000001,2756.9026628,879.68145265,1295.80249215,420.0162812,362.07121201,513.71499894,259.94173493,1990.50254129,,388.699100585,1726.07834513,2775.0151050999993,0.0,258.27164036,1040.2882991800002,114.64521858000016,3604.4315728299994,25149.485612314995,26304.419130074995
2004-10-01,4512.700000000001,4256.7,256.0,7918.0,5105.1,813.5,3626.3999999999996,493.9,882.3,273.29999999999995,0.0,51.175713040000005,2578.0,903.9,1609.8942600799999,408.02296692000004,563.5945289399999,638.27676422,268.6,2068.8,,413.9,1565.0871791199997,2453.04866554,0.0,153.77981612,930.2497621499998,88.99967220000002,3152.6662264300003,24139.33619955,25158.585633900002
2005-01-01,5317.0,5081.3,235.7,8251.6,5518.2,606.0,3339.4,370.0,861.3,290.7,0.0,49.460686810000006,2569.0,798.8,1252.40506533,466.1771537,348.83083573,437.3970759,158.79999999999998,2060.4,,314.40000000000003,1899.45457047,2943.7481997000004,0.0,217.16819672,1172.7625289700002,31.005300390000205,3856.60313753,25410.468889670003,26614.236719030003
2005-04-01,9270.37696299,9001.321398850001,269.05556414,9177.704091970001,5729.44978411,725.06645589,4173.32076375,470.0,901.9908681500001,271.6036454,0.0,56.173028689999995,3558.78216822,927.3826584999999,1396.20960075,386.62948801999994,489.33499285000005,520.2451198800001,1055.2725335,2330.5297577799997,,377.7,1778.8659450700002,2733.02965081,0.0,165.08669179,1078.05763795,70.69426275999996,3528.2303869599996,32381.955702909996,33530.70760362
2005-07-01,6350.0,6044.700000000001,305.3,9706.9,6099.6,593.5999999999999,4200.9,480.0,905.2,270.5,0.0,57.72945252000001,3343.9,1031.3,1455.5814395500001,402.27596123,444.84932616000003,608.4561521600001,291.9,2422.8,,370.8,2153.28097199,3491.9100077900002,0.0,177.72408828999997,1306.2054214899997,86.64503692999999,4430.06460965,30156.67550172,31549.52596014
2005-10-01,7107.900000000001,6775.000000000001,332.9,9717.199999999999,6195.4,877.0,4398.8,565.0,989.1000000000001,269.4,0.0,64.07267999000001,2850.8,1110.0,1913.18267882,513.9538321800001,628.63391364,770.5949330000001,306.7,2620.5,,406.79999999999995,2172.12412902,3578.4332783199998,0.0,169.89096672,1296.12688159,111.73648189000005,4512.58501058,31303.240369389998,32711.103732869997
2006-01-01,6696.0,6381.299999999999,314.7,10501.8,6763.0,699.5,4438.299999999999,525.0,1005.3,252.3,0.0,62.294585475,2869.4,1131.8,1267.72820344,472.67728245,359.66587864999997,435.38504234000004,180.6,2595.4,,550.0,2564.1117024699997,4387.738110390001,0.0,191.74308852999997,1546.20817656,98.41350009999998,5498.97122473,32086.594013645,33731.215690305
2006-04-01,10079.69702801,9741.505252750001,338.19177526,11153.36501612,7036.94071966,749.05881791,4865.483114369999,480.0,1003.2976656399999,266.38251005,0.0,59.83102289000001,3448.42274903,1202.02129208,1676.55272405,488.75041011999997,533.96617968,653.83613425,1195.16943533,2876.41704105,,469.45099231499995,2449.18876551,4073.6653395599997,0.0,292.01012569,1460.46833277,101.73870644000007,5252.657191549999,38203.264668115,39765.471707325
2006-07-01,8047.972629839999,7647.698218939999,400.2744109,12140.432143409998,7527.6377107,819.14815992,5431.94259263,480.0,993.0400782699999,274.59990923,0.0,70.02241681000001,4234.34775734,1357.06682202,1684.1519918600002,547.06692436,500.93904829,636.1460192100001,349.80075986,2929.3389942999997,,419.9986065,2940.19112948,4971.74984652,0.0,433.45644121000004,1772.41439304,138.84256116999978,6434.140463,38454.91257243999,40366.169526649996
2006-10-01,8791.40123882,8356.36752754,435.03371128000003,13308.55974112,8747.45347253,995.5001062599999,5556.60637485,480.0,1090.2310669899998,290.72573382,0.0,98.10130113999999,4159.50828044,1438.23798599,1944.19290848,543.29853212,612.47627102,788.41810534,351.18147823,3284.58435862,,570.16720987,2777.32107511,4720.501852949999,0.0,739.22603641,1651.9708647800003,168.01339249000017,6417.064707199999,41263.956010719994,43083.940267989994
2007-01-01,8226.60587657,7792.957990449999,433.64788612,13397.02475382,9027.26660996,1199.80435773,5569.5625015900005,520.0,1129.04345733,277.63579565000003,0.0,111.69586683499998,3767.9334887699997,1487.99690732,1473.25856351,598.75280419,393.56242353000005,480.94333579,227.83617768,3214.51525774,,426.02096808500005,3386.62580194,5912.6270069699995,0.0,1133.2485116300002,2038.2842260400002,-221.80393131999995,8616.021025819999,41835.58813913,43652.06843385
2007-04-01,12906.906600510001,12452.484779500002,454.42182101000003,14476.84841711,9322.03593964,849.96641025,6004.77888772,360.0,1111.18332906,343.29116089999997,0.0,120.12008227499999,4767.35997249,1543.71987417,1754.6359902499998,533.72156349,519.16644155,701.74798521,1425.31453306,3654.29092168,,528.150590345,3205.49768733,5476.448459519999,0.0,1299.37681639,1908.93813823,153.09175056000007,7919.293074449999,50191.1145463,52253.14443509
2007-07-01,10760.94419354,10101.61962371,659.32456983,16734.03065015,9882.015887239999,839.97647608,7691.99123899,367.5,1155.4827975,325.31924169,0.0,137.065769075,4969.65885504,1868.58019491,2048.23763634,671.7627987599999,629.72236247,746.75247511,409.74862293,3966.56154557,,462.27351684,3842.931663359999,6677.68033827,0.0,1397.21150867,2190.76652099,119.52178994,9607.53519937,52077.938222955,54388.226533885
2007-10-01,10960.43355133,10240.985130969999,719.44842036,18061.346689570004,11028.88118583,1099.98424458,8132.449748319999,665.0,1321.80517147,352.71468255,0.0,149.42842308000002,6944.789252250001,2118.13767917,2189.54377057,733.52607187,628.9384865699999,827.0792121300001,428.98284735000004,4229.572809290001,,397.0962400000001,3887.5779734400003,6107.88094529,0.0,1443.70061884,2086.7042215,164.34018707,9188.115129,55676.96624563,57928.0106542
2008-01-01,10792.855082859998,10146.27315928,646.58192358,18400.24726142,11871.494311030001,1275.10524354,7803.85819393,875.0,1355.47449897,296.84121265,0.0,132.68409817499997,7940.469690219999,2071.73920003,2256.8023567,946.03017159,567.77667603,742.9955090799999,259.06788983,4359.00302283,,682.2005111550002,5028.80366516,7660.414613699999,0.0,1483.46717787,2687.7284686899998,134.79822443999984,11350.158763600002,59022.54358844,61845.07028157
2008-04-01,14971.62130044,14227.18448505,744.43681539,19922.15015475,12258.72283556,1675.0,9338.42731919,490.0,1369.44427439,339.94580416,0.0,154.84850464,8514.76772913,2237.5138730999997,2360.45976829,785.6237745,685.15902686,889.6769669299999,1771.49720931,4818.68916818,,528.0739625000001,5441.11356684,7526.9716284099995,0.0,1618.1553475500002,2795.33191072,169.2044517000001,11621.70418038,68120.71592927,71085.25229169
2008-07-01,14198.71752594,13264.13422308,934.58330286,21250.15829095,12692.13169106,1471.0,10029.02659989,829.0,1357.36001729,176.59721039,0.0,146.05468506,11405.67279604,2355.19236646,2329.2906147,848.91427946,582.0823887700001,898.2939464699999,701.3621962200001,5162.42395353,,646.77701028,6531.67576067,9139.858187509999,0.0,1627.65707632,3308.98900967,226.73888388000037,13763.463130950002,72664.06979780999,76199.79769136
2008-10-01,13682.836428899998,12819.29564997,863.5407789300001,20656.262706729998,13570.57582885,1465.0,8550.686877880002,700.0,1535.01312998,174.37521732,0.0,162.21478720000002,8194.33796516,2322.00964109,2747.29754556,1029.13400686,676.8665167300001,1041.29702197,643.0440920400001,5155.035505579999,,586.7127341699997,6240.989524660001,8839.73710794,0.0,1680.36334015,2176.45000635,176.13601122999944,14408.503955170003,69567.6437089,71920.22972647999
2009-01-01,11079.26664536,10563.46307276,515.8035726,20144.38620442,14785.17246461,785.0,6144.21373981,100.0,1614.5106027800002,390.55033606000006,0.0,128.438257895,6890.82678224,1692.9492486599997,2376.87197128,1031.90879075,569.03832569,775.9248548400001,389.55071840000005,4645.48344026,,800.2585404849997,7059.4229258899995,9968.5823119,0.0,1652.7262649599998,0.0,82.72293683,18598.008565919998,68651.10131376,68733.82425059
2009-04-01,15906.41287036,15355.64282505,550.7700453100001,20916.2542731,14930.7426692,973.0,6958.5116038999995,327.0,1527.3089594199998,375.2051528200001,0.0,120.079232585,9051.678645000002,1781.4437302699998,2661.3407516400002,1011.3644751400001,633.00594076,1016.97033574,1872.9832809900001,5093.31846244,,1005.4482182850003,6378.4859601,9255.83122661,0.0,1700.6318548699999,0.0,228.62075667,17106.32828491,77090.80186182,77319.42261849
2009-07-01,13355.54035286,12701.68167043,653.85868243,23239.47846757,15784.50736843,900.0,8354.971099139999,904.0,1645.9912394599999,208.37747467,0.0,155.11816443,7304.429107190001,2034.17897177,2752.25728696,1111.82986018,622.97011378,1017.457313,832.16067959,5273.82663813,,1820.6821178500002,7827.8463247,11401.420172579998,0.0,1765.34731453,0.0,195.17834488999998,20799.435466919997,78517.47596740001,78712.65431229
2009-10-01,15211.121548259998,14557.331916500001,653.78963176,23085.57807471,15893.294063410001,1073.0,8265.3840113,1120.0,1930.1109601,238.59497069,0.0,170.15841379,8794.59525528,2191.34596199,3802.8235636700006,1398.5250202,1025.1739162000001,1379.12462727,946.4110898600001,5548.85828077,,632.0029318149999,7513.268485250001,10260.73450178,0.0,1812.98611517,0.0,347.38330784999994,19239.60579435,80671.20684528499,81018.590153135
2010-01-01,13964.69901759,13326.97566529,637.7233523,25069.14905973,17542.782853570003,842.0,8368.36620616,704.0,2260.48757614,556.84803024,0.0,160.788101045,8306.85303111,2219.82362235,3026.57852887,1388.3419786700001,689.2216676,949.0148826,566.61458736,5566.612364709999,,647.7478111350008,8670.55640137,12621.819342989998,0.0,2136.3632351100005,0.0,159.77042583000087,23268.96855364,84911.17028392,84911.17028392
2010-04-01,24885.141606589998,24100.186625719998,784.95498087,27726.72328808,18047.03699781,802.0,10481.686290270001,707.0,2360.74660408,401.74735016,0.0,179.159993195,12416.654748920002,2554.52439252,3802.5688841500005,1557.1906726500001,908.2258382800001,1337.15237322,2441.59504949,6500.170608799999,,1357.914036025,8637.0092344,12303.407324029999,0.0,2193.4019581599996,0.0,284.1329520199998,22849.68556457,106769.63212657999,106769.63212657999